This is the latest recevied weather packets stored in our database for station/object N5DGC. If no packets are shown the sender has not sent any weather packets the latest 1 day(s).
| Time | Temp. | Humidity | Pressure | Rain* | Wind** | Luminosity | Snow |
|---|---|---|---|---|---|---|---|
| 1777992296 | 11.67° C | 60% | 1232.4 hPa | 0 mm | 0.89 m/s, 344° | 122 W/m² | - |
| 1777991993 | 11.67° C | 59% | 1232.5 hPa | 0 mm | 1.79 m/s, 48° | 94 W/m² | - |
| 1777991691 | 11.67° C | 59% | 1232.4 hPa | 0 mm | 0.89 m/s, 93° | 89 W/m² | - |
| 1777991388 | 11.67° C | 59% | 1232.5 hPa | 0 mm | 1.79 m/s, 39° | 76 W/m² | - |
| 1777991085 | 11.67° C | 58% | 1232.5 hPa | 0 mm | 1.79 m/s, 56° | 63 W/m² | - |
| 1777990782 | 11.67° C | 57% | 1232.4 hPa | 0 mm | 2.24 m/s, 54° | 48 W/m² | - |
| 1777990479 | 11.67° C | 58% | 1232.5 hPa | 0 mm | 2.24 m/s, 357° | 39 W/m² | - |
| 1777990176 | 11.67° C | 58% | 1232.1 hPa | 0 mm | 1.79 m/s, 65° | 40 W/m² | - |
| 1777989873 | 12.22° C | 58% | 1232.2 hPa | 0 mm | 1.79 m/s, 65° | 43 W/m² | - |
| 1777989571 | 12.22° C | 55% | 1232.5 hPa | 0 mm | 2.24 m/s, 305° | 43 W/m² | - |
| 1777989266 | 12.78° C | 52% | 1232.2 hPa | 0 mm | 1.34 m/s, 53° | 34 W/m² | - |
| 1777988962 | 13.33° C | 48% | 1232.4 hPa | 0 mm | 0.89 m/s, 85° | 29 W/m² | - |
| 1777988659 | 13.89° C | 41% | 1232.2 hPa | 0 mm | 0.89 m/s, 68° | 25 W/m² | - |
| 1777988355 | 13.89° C | 40% | 1232.1 hPa | 0 mm | 0.89 m/s, 77° | 24 W/m² | - |
| 1777988053 | 13.89° C | 40% | 1232.1 hPa | 0 mm | 0.45 m/s, 76° | 23 W/m² | - |
| 1777987748 | 13.89° C | 40% | 1232 hPa | 0 mm | 0.45 m/s, 39° | 22 W/m² | - |
| 1777987446 | 13.89° C | 39% | 1232 hPa | 0 mm | 0.45 m/s, 77° | 14 W/m² | - |
| 1777987143 | 13.89° C | 39% | 1231.8 hPa | 0 mm | 0.89 m/s, 46° | 11 W/m² | - |
| 1777986840 | 13.89° C | 39% | 1231.5 hPa | 0 mm | 0 m/s | 10 W/m² | - |
| 1777986538 | 13.89° C | 39% | 1231.4 hPa | 0 mm | 0.45 m/s, 69° | 10 W/m² | - |
| 1777986235 | 13.89° C | 39% | 1231.5 hPa | 0 mm | 0.89 m/s, 36° | 8 W/m² | - |
| 1777985932 | 13.89° C | 39% | 1231.3 hPa | 0 mm | 0 m/s | 9 W/m² | - |
| 1777985630 | 13.89° C | 39% | 1231.2 hPa | 0 mm | 0 m/s | 9 W/m² | - |
| 1777985326 | 13.89° C | 39% | 1231.2 hPa | 0 mm | 0.89 m/s, 51° | 10 W/m² | - |
| 1777985023 | 13.89° C | 38% | 1231.1 hPa | 0 mm | 0.89 m/s, 1° | 9 W/m² | - |
* Rain latest hour (hover to see other rain measurements)
** Current wind speed in m/s (hover to see current wind gust speed)